DELTA 1 DEB, 10868

Orbit data source: Space-Track

DELTA 1 DEB, 10868 is space debris in SSO originally from a launch on Thu, 29 Jul 1976 UTC launched from the Air Force Western Test Range (AFWTR). Debris objects in space refer to the collection of defunct objects orbiting the Earth. Examples of debris include non-operational satellites, rocket bodies, and fragments generated from explosions, collisions, or faulty payload assembly.

Loading next visibility...
Identifier
10868, 1976-077CW
Orbit
SSO
Country
Flag of USUS
Related business
Manufacturer
Unknown
Mission
Spacecraft
Bus & Motor
Unknown
Mass
Unknown
Launch date (UTC)
1976-07-29 (49 years ago)
Launch vehicle
Unknown
Launch site
Air Force Western Test Range (AFWTR)
Object type
Payload
Rocket body
Debris
Shape & HBR
Unknown shape, 0.1 m
Radar Cross Section
Small (<0.1 m²)

Expand to show TLE details & history
Last TLE update: 1 day ago

TLE from 1 day ago
0 DELTA 1 DEB
1 10868U 76077CW  25291.82956652  .00000697  00000-0  55342-2 0  9995
2 10868 102.4269 128.7646 0090878 148.9084 232.0850 12.39331005212944
Epoch: 2025-10-18T19:54Z
TLE epoch observation values (Epoch: 2025-10-18T19:54:34.547Z)
Latitude
19.68877°
Longitude
158.0652°
Altitude
1,556.018 km
Speed
7.071 km/s
True Right ascension
08h 17m 03s
True Declination
19° 35' 27"
Sunlit
Object was in daylight at epoch
Visualization orbit readout
Latitude
Unknown
Longitude
Unknown
Altitude
Unknown
Speed
Unknown
Apparent Right ascension
Unknown
Apparent Declination
Unknown
Sunlit
N/A
Visualization observer readout
Local Sidereal Time
17:01:25
Azimuth
Unknown
Elevation
Unknown
Doppler factor
Unknown
Orbital elements
Apogee altitude
1,578.7 km
Perigee altitude
1,435.383 km
Semi-major axis
7,885.178 km
Eccentricity
0.00909
Inclination
102.4269°
RAAN
128.7646°
Arg. of periapsis
148.9084°
True anomaly
231.26915°
Mean anomaly
232.085°
Eccentric anomaly
231.67651°
Mean motion
3.09974 °/min
Orbital period
116.14 mins
BSTAR
0.0055342
Loading maneuver chart data...
Computing Atmospheric mass density...
Loading historical data...
Loading historical data...
Loading historical data...
Loading historical data...
Loading historical data...
Loading historical data...
Loading historical data...

Documentation

Showing up to 5 results
|